GLG1638 SEQM-SEGU

Flight info

Callsign GLG1638
Flight time 0h 31m
Altitude 26000
Route TEMOX3A TEMOX TEMOX2
Aircraft A320/M-SDE3FGHIRWY/LB1

Departure

Time 2026-04-25 16:26
Airport Mariscal Sucre International Airport (SEQM)

Arrival

Time 2026-04-25 16:57
Airport José Joaquín de Olmedo International Airport (SEGU)
Time Latitude Longitude Altitude Speed Heading
2026-04-25 16:02 -0.12702 -78.35932 7984 ft 0 kts 268°
2026-04-25 16:17 -0.12701 -78.35917 7987 ft 2 kts 264°
2026-04-25 16:17 -0.12700 -78.35901 7984 ft 2 kts 263°
2026-04-25 16:17 -0.12698 -78.35884 7984 ft 2 kts 261°
2026-04-25 16:17 -0.12695 -78.35868 7985 ft 2 kts 256°
2026-04-25 16:18 -0.12691 -78.35852 7992 ft 2 kts 246°
2026-04-25 16:18 -0.12689 -78.35847 7989 ft 2 kts 240°
2026-04-25 16:18 -0.12668 -78.35830 7987 ft 2 kts 179°
2026-04-25 16:18 -0.12662 -78.35831 7986 ft 0 kts 176°
2026-04-25 16:20 -0.12667 -78.35830 7987 ft 2 kts 176°
2026-04-25 16:20 -0.12693 -78.35808 7984 ft 8 kts 120°
2026-04-25 16:20 -0.12697 -78.35611 7990 ft 15 kts 116°
2026-04-25 16:21 -0.12751 -78.35600 7986 ft 10 kts 175°
2026-04-25 16:21 -0.12842 -78.35594 7986 ft 16 kts 177°
2026-04-25 16:21 -0.12971 -78.35588 7985 ft 19 kts 177°
2026-04-25 16:21 -0.13065 -78.35584 7986 ft 20 kts 179°
2026-04-25 16:22 -0.13207 -78.35579 7986 ft 20 kts 178°
2026-04-25 16:22 -0.13348 -78.35572 7985 ft 21 kts 177°
2026-04-25 16:22 -0.13498 -78.35567 7985 ft 22 kts 178°
2026-04-25 16:22 -0.13645 -78.35560 7985 ft 21 kts 176°
2026-04-25 16:23 -0.13789 -78.35553 7984 ft 21 kts 178°
2026-04-25 16:23 -0.13941 -78.35548 7988 ft 22 kts 178°
2026-04-25 16:23 -0.14102 -78.35542 7987 ft 23 kts 177°
2026-04-25 16:23 -0.14245 -78.35507 7988 ft 18 kts 129°
2026-04-25 16:24 -0.14254 -78.35403 7984 ft 12 kts 84°
2026-04-25 16:24 -0.14231 -78.35362 7983 ft 5 kts 19°
2026-04-25 16:24 -0.14214 -78.35362 7983 ft 0 kts 355°
2026-04-25 16:25 -0.14213 -78.35362 7983 ft 1 kts 355°
2026-04-25 16:25 -0.14176 -78.35365 7983 ft 20 kts 356°
2026-04-25 16:25 -0.13545 -78.35392 7986 ft 110 kts 358°
2026-04-25 16:25 -0.12601 -78.35431 7989 ft 160 kts 357°
2026-04-25 16:26 -0.11368 -78.35485 8345 ft 174 kts 356°
2026-04-25 16:26 -0.10152 -78.35554 9163 ft 177 kts 355°
2026-04-25 16:26 -0.08892 -78.35636 9580 ft 190 kts 355°
2026-04-25 16:26 -0.07480 -78.35732 9773 ft 210 kts 355°
2026-04-25 16:27 -0.05954 -78.35842 10003 ft 232 kts 355°
2026-04-25 16:27 -0.04245 -78.35951 10245 ft 260 kts 356°
2026-04-25 16:27 -0.02342 -78.36058 10546 ft 287 kts 356°
2026-04-25 16:27 -0.00274 -78.36264 10856 ft 311 kts 343°
2026-04-25 16:28 0.01646 -78.37369 11094 ft 333 kts 314°
2026-04-25 16:28 0.02860 -78.39383 11469 ft 348 kts 285°
2026-04-25 16:28 0.03012 -78.41802 12093 ft 355 kts 263°
2026-04-25 16:28 0.02361 -78.44225 12813 ft 360 kts 247°
2026-04-25 16:29 0.01390 -78.46546 13558 ft 363 kts 246°
2026-04-25 16:29 0.00389 -78.48880 14309 ft 367 kts 246°
2026-04-25 16:29 -0.00634 -78.51218 14976 ft 370 kts 246°
2026-04-25 16:29 -0.01682 -78.53592 15617 ft 374 kts 246°
2026-04-25 16:30 -0.02738 -78.55980 16227 ft 378 kts 246°
2026-04-25 16:30 -0.03871 -78.58399 16840 ft 382 kts 240°
2026-04-25 16:30 -0.05372 -78.60593 17431 ft 386 kts 230°
2026-04-25 16:30 -0.07249 -78.62530 17993 ft 390 kts 224°
2026-04-25 16:31 -0.09200 -78.64432 18557 ft 394 kts 225°
2026-04-25 16:31 -0.11197 -78.66382 19030 ft 398 kts 225°
2026-04-25 16:31 -0.13185 -78.68325 19482 ft 402 kts 225°
2026-04-25 16:31 -0.15194 -78.70292 19942 ft 407 kts 225°
2026-04-25 16:32 -0.17253 -78.72312 20428 ft 411 kts 225°
2026-04-25 16:32 -0.19300 -78.74321 20905 ft 415 kts 225°
2026-04-25 16:32 -0.21404 -78.76386 21394 ft 420 kts 225°
2026-04-25 16:32 -0.23493 -78.78436 21865 ft 424 kts 225°
2026-04-25 16:33 -0.25610 -78.80510 22335 ft 428 kts 225°
2026-04-25 16:33 -0.27746 -78.82602 22827 ft 431 kts 225°
2026-04-25 16:33 -0.29952 -78.84763 23299 ft 435 kts 224°
2026-04-25 16:33 -0.32148 -78.86913 23749 ft 438 kts 224°
2026-04-25 16:34 -0.34327 -78.89046 24061 ft 441 kts 224°
2026-04-25 16:34 -0.36528 -78.91202 24153 ft 443 kts 224°
2026-04-25 16:34 -0.38737 -78.93366 24175 ft 447 kts 224°
2026-04-25 16:34 -0.40236 -78.94834 24169 ft 447 kts 224°
2026-04-25 16:35 -0.42461 -78.97012 24169 ft 448 kts 224°
2026-04-25 16:35 -0.44773 -78.99277 24165 ft 448 kts 224°
2026-04-25 16:35 -0.46999 -79.01458 24161 ft 448 kts 224°
2026-04-25 16:35 -0.49230 -79.03642 24156 ft 448 kts 224°
2026-04-25 16:36 -0.51487 -79.05851 24149 ft 448 kts 224°
2026-04-25 16:36 -0.52234 -79.06583 24150 ft 448 kts 224°
2026-04-25 16:36 -0.55993 -79.10269 24142 ft 448 kts 224°
2026-04-25 16:36 -0.58353 -79.12289 24131 ft 448 kts 215°
2026-04-25 16:37 -0.61016 -79.13900 24128 ft 447 kts 205°
2026-04-25 16:37 -0.63864 -79.15229 24126 ft 447 kts 204°
2026-04-25 16:37 -0.66725 -79.16555 24122 ft 447 kts 204°
2026-04-25 16:37 -0.69548 -79.17868 24117 ft 447 kts 204°
2026-04-25 16:38 -0.72407 -79.19197 24115 ft 447 kts 204°
2026-04-25 16:38 -0.75229 -79.20509 24110 ft 447 kts 204°
2026-04-25 16:38 -0.78039 -79.21818 24109 ft 447 kts 204°
2026-04-25 16:38 -0.80950 -79.23173 24103 ft 447 kts 204°
2026-04-25 16:39 -0.83799 -79.24497 24102 ft 447 kts 204°
2026-04-25 16:39 -0.86668 -79.25831 24097 ft 448 kts 204°
2026-04-25 16:39 -0.89483 -79.27143 24093 ft 447 kts 204°
2026-04-25 16:39 -0.92303 -79.28456 24088 ft 447 kts 204°
2026-04-25 16:40 -0.95162 -79.29787 24083 ft 447 kts 204°
2026-04-25 16:40 -0.98056 -79.31129 23989 ft 446 kts 204°
2026-04-25 16:40 -1.00900 -79.32448 23758 ft 442 kts 204°
2026-04-25 16:40 -1.03676 -79.33735 23255 ft 438 kts 204°
2026-04-25 16:41 -1.06445 -79.35022 22582 ft 434 kts 204°
2026-04-25 16:41 -1.07384 -79.35459 22383 ft 433 kts 204°
2026-04-25 16:41 -1.14558 -79.38802 20856 ft 422 kts 205°
2026-04-25 16:42 -1.17209 -79.40035 20316 ft 419 kts 205°
2026-04-25 16:42 -1.19846 -79.41261 19781 ft 415 kts 205°
2026-04-25 16:42 -1.22494 -79.42492 19231 ft 413 kts 205°
2026-04-25 16:42 -1.24248 -79.43308 18871 ft 411 kts 205°
2026-04-25 16:43 -1.26825 -79.44505 18316 ft 409 kts 205°
2026-04-25 16:43 -1.29407 -79.45703 17700 ft 406 kts 205°
2026-04-25 16:43 -1.31991 -79.46904 17131 ft 403 kts 205°
2026-04-25 16:43 -1.34516 -79.48079 16565 ft 399 kts 205°
2026-04-25 16:44 -1.37024 -79.49244 15990 ft 396 kts 205°
2026-04-25 16:44 -1.39546 -79.50415 15416 ft 394 kts 205°
2026-04-25 16:44 -1.42062 -79.51584 14829 ft 391 kts 205°
2026-04-25 16:44 -1.44549 -79.52740 14242 ft 389 kts 205°
2026-04-25 16:45 -1.47026 -79.53891 13629 ft 386 kts 205°
2026-04-25 16:45 -1.49455 -79.55021 13011 ft 383 kts 205°
2026-04-25 16:45 -1.51857 -79.56140 12438 ft 379 kts 205°
2026-04-25 16:45 -1.54269 -79.57263 11851 ft 374 kts 205°
2026-04-25 16:46 -1.56617 -79.58355 11264 ft 371 kts 205°
2026-04-25 16:46 -1.58941 -79.59438 10696 ft 367 kts 205°
2026-04-25 16:46 -1.61245 -79.60507 10508 ft 351 kts 205°
2026-04-25 16:46 -1.62684 -79.61176 10426 ft 341 kts 205°
2026-04-25 16:47 -1.65486 -79.62479 10268 ft 322 kts 205°
2026-04-25 16:47 -1.67463 -79.63399 10153 ft 309 kts 205°
2026-04-25 16:47 -1.69406 -79.64303 9963 ft 300 kts 205°
2026-04-25 16:47 -1.71317 -79.65190 9558 ft 300 kts 205°
2026-04-25 16:48 -1.73284 -79.66102 9217 ft 297 kts 205°
2026-04-25 16:48 -1.75126 -79.66955 8822 ft 295 kts 205°
2026-04-25 16:48 -1.76988 -79.67821 8415 ft 293 kts 205°
2026-04-25 16:48 -1.78829 -79.68678 8011 ft 292 kts 205°
2026-04-25 16:49 -1.80677 -79.69542 7540 ft 287 kts 205°
2026-04-25 16:49 -1.82485 -79.70386 6870 ft 285 kts 205°
2026-04-25 16:49 -1.84296 -79.71228 6234 ft 281 kts 205°
2026-04-25 16:49 -1.85778 -79.71917 6039 ft 277 kts 205°
2026-04-25 16:50 -1.87578 -79.72753 5887 ft 278 kts 205°
2026-04-25 16:50 -1.89351 -79.73538 5425 ft 268 kts 199°
2026-04-25 16:50 -1.91055 -79.74187 5146 ft 250 kts 205°
2026-04-25 16:50 -1.92545 -79.74980 4854 ft 237 kts 210°
2026-04-25 16:51 -1.93933 -79.75790 4553 ft 226 kts 210°
2026-04-25 16:51 -1.95282 -79.76573 4270 ft 216 kts 210°
2026-04-25 16:51 -1.96520 -79.77288 4012 ft 198 kts 210°
2026-04-25 16:51 -1.96915 -79.77515 3912 ft 192 kts 210°
2026-04-25 16:52 -1.98718 -79.78554 3524 ft 167 kts 210°
2026-04-25 16:52 -1.99720 -79.79131 3316 ft 158 kts 210°
2026-04-25 16:52 -2.00339 -79.79488 3180 ft 153 kts 210°
2026-04-25 16:52 -2.01270 -79.80024 2991 ft 151 kts 210°
2026-04-25 16:53 -2.03083 -79.81069 2602 ft 150 kts 210°
2026-04-25 16:53 -2.03998 -79.81597 2409 ft 150 kts 210°
2026-04-25 16:53 -2.04888 -79.82109 2215 ft 149 kts 210°
2026-04-25 16:54 -2.05798 -79.82634 2021 ft 149 kts 210°
2026-04-25 16:54 -2.06687 -79.83146 1821 ft 148 kts 210°
2026-04-25 16:54 -2.07593 -79.83668 1639 ft 148 kts 210°
2026-04-25 16:54 -2.08485 -79.84182 1432 ft 148 kts 210°
2026-04-25 16:55 -2.09375 -79.84695 1252 ft 147 kts 210°
2026-04-25 16:55 -2.10259 -79.85205 1065 ft 147 kts 210°
2026-04-25 16:55 -2.11153 -79.85720 890 ft 148 kts 209°
2026-04-25 16:55 -2.12051 -79.86238 699 ft 148 kts 210°
2026-04-25 16:56 -2.12949 -79.86754 506 ft 149 kts 210°
2026-04-25 16:56 -2.13870 -79.87287 267 ft 149 kts 210°
2026-04-25 16:56 -2.14807 -79.87829 63 ft 149 kts 210°
2026-04-25 16:56 -2.15638 -79.88307 27 ft 111 kts 210°
2026-04-25 16:57 -2.16161 -79.88607 29 ft 61 kts 210°
2026-04-25 16:57 -2.16268 -79.88669 29 ft 44 kts 210°
2026-04-25 16:57 -2.16339 -79.88758 28 ft 2 kts 296°
2026-04-25 16:57 -2.16331 -79.88770 28 ft 2 kts 302°
2026-04-25 16:58 -2.16327 -79.88778 28 ft 1 kts 302°
2026-04-25 16:58 -2.16299 -79.88790 28 ft 6 kts
2026-04-25 16:58 -2.16263 -79.88775 28 ft 5 kts 30°
2026-04-25 16:58 -2.16237 -79.88760 28 ft 4 kts 30°
2026-04-25 16:59 -2.16219 -79.88750 29 ft 3 kts 30°
2026-04-25 16:59 -2.16189 -79.88733 29 ft 10 kts 29°
2026-04-25 16:59 -2.16103 -79.88682 29 ft 19 kts 31°
2026-04-25 16:59 -2.15962 -79.88601 28 ft 26 kts 29°
2026-04-25 17:00 -2.15797 -79.88506 28 ft 27 kts 30°
2026-04-25 17:00 -2.15629 -79.88411 28 ft 28 kts 30°
2026-04-25 17:00 -2.15468 -79.88316 28 ft 22 kts 31°
2026-04-25 17:00 -2.15352 -79.88249 28 ft 20 kts 30°
2026-04-25 17:01 -2.15250 -79.88241 28 ft 16 kts 308°
2026-04-25 17:01 -2.15202 -79.88331 29 ft 14 kts 297°
2026-04-25 17:01 -2.15163 -79.88393 29 ft 6 kts 324°
2026-04-25 17:01 -2.15127 -79.88414 29 ft 7 kts 304°
2026-04-25 17:02 -2.15113 -79.88438 29 ft 2 kts 299°
2026-04-25 17:02 -2.15105 -79.88451 29 ft 2 kts 300°
2026-04-25 17:02 -2.15103 -79.88455 29 ft 0 kts 300°